[[{"header":{"parameterUnit":"m.s-1","parameterCategory":1,"la1":30.2991,"la2":30.254,"lo1":-89.0895,"lo2":-89.0444,"dy":0.0017,"dx":0.0017,"nx":28,"ny":28,"refTime":"2024-06-15T03:00:00:Z","depth":0,"parameterNumber":2,"parameterNumberName":"U-component_of_WINDS"},"data":[0,0,0,0,0,0,0,0,0,0,0,0,0,0,0,0,0,0,0,0,0,0,0,0,0,0,0,0,0,0,0,0,0,0,0,0,0,0,0,0,0,0,0,0,0,0,0,0,0,0,0,0,0,0,0,0,0,0,-2.8019,-2.802,0,-2.8078,-2.8079,-2.8079,-2.8054,-2.8053,-2.8051,-2.805,-2.811,-2.8113,-2.8116,0,0,0,0,0,0,0,0,0,0,0,0,0,-2.7886,-2.7889,-2.8019,-2.802,-2.802,-2.8078,-2.8079,-2.8079,-2.8054,-2.8053,-2.8051,-2.8049,-2.811,-2.8113,-2.8117,0,0,0,0,0,0,0,0,0,0,0,0,0,-2.7944,-2.7889,-2.8019,-2.8015,-2.8015,-2.8078,-2.8079,-2.808,-2.8055,-2.8053,-2.8051,-2.8049,-2.8108,-2.8113,-2.8117,-2.8187,0,0,-2.813,-2.8132,0,0,0,0,0,0,0,0,-2.7941,-2.7949,-2.8015,-2.8015,-2.8016,-2.8057,-2.8054,-2.8116,-2.8055,-2.804,-2.805,-2.8047,-2.8094,-2.81,-2.8115,-2.819,-2.8192,-2.8131,-2.8134,-2.8135,-2.8137,0,0,0,0,0,0,0,-2.7937,-2.7947,-2.8042,-2.8016,-2.8016,-2.8011,-2.8017,-2.8066,-2.8078,-2.8041,-2.8039,-2.8047,-2.8094,-2.8111,-2.8117,-2.8193,-2.8131,-2.8135,-2.8137,-2.8139,-2.833,-2.8332,0,0,0,0,0,0,-2.7933,-2.7943,-2.804,-2.8044,-2.7972,-2.8015,-2.8021,-2.8046,-2.8078,-2.808,-2.8048,-2.8045,-2.8105,-2.8112,-2.8119,-2.8203,-2.8135,-2.814,-2.8142,-2.8327,-2.833,-2.8333,0,0,0,0,0,0,-2.793,-2.7942,-2.8038,-2.7993,-2.8005,-2.8019,-2.8047,-2.8048,-2.8065,-2.8083,-2.8085,-2.8063,-2.8103,-2.8113,-2.8171,-2.8205,-2.8142,-2.8146,-2.8325,-2.8328,-2.8332,-2.8373,0,0,0,0,0,0,-2.7926,-2.7941,-2.7967,-2.7994,-2.8008,-2.8088,-2.8049,-2.8051,-2.8073,-2.8069,-2.8098,-2.8101,-2.8102,-2.8164,-2.8175,-2.821,-2.8149,-2.8321,-2.8326,-2.8331,-2.8369,-2.8378,-2.8385,0,0,0,0,0,-2.7922,-2.7976,-2.7968,-2.798,-2.8041,-2.809,-2.8098,-2.8099,-2.8075,-2.8102,-2.8114,-2.81,-2.82,-2.817,-2.8182,-2.8219,-2.8319,-2.8325,-2.833,-2.8365,-2.8376,-2.8385,0,0,0,0,0,0,-2.7952,-2.7979,-2.7971,-2.8036,-2.8061,-2.8086,-2.812,-2.811,-2.8143,-2.8138,-2.8138,-2.8145,-2.8205,-2.8218,-2.8184,-2.829,-2.8256,-2.8264,-2.8278,-2.8289,-2.8297,-2.8292,-2.8153,0,0,0,0,0,-2.7967,-2.8005,-2.8026,-2.8081,-2.8094,-2.8105,-2.8127,-2.8126,-2.8152,-2.8162,-2.8178,-2.8204,-2.8242,-2.8266,-2.8302,-2.8371,-2.8377,-2.8403,-2.8411,-2.8418,-2.8424,-2.8463,-2.8475,-2.8351,-2.8351,-2.8351,0,0,-2.7996,-2.8016,-2.804,-2.8088,-2.8107,-2.8147,-2.8114,-2.8157,-2.8187,-2.8168,-2.8224,-2.8238,-2.8267,-2.8331,-2.836,-2.8344,-2.846,-2.8425,-2.843,-2.8433,-2.847,-2.8482,-2.8492,-2.8355,-2.8354,-2.8353,0,0,-2.8071,-2.8089,-2.8138,-2.8158,-2.8188,-2.8195,-2.8207,-2.8234,-2.8242,-2.8298,-2.8286,-2.8322,-2.8386,-2.8407,-2.8427,-2.8512,-2.85,-2.8524,-2.8567,-2.8605,-2.8615,-2.8623,-2.8654,-2.8665,-2.8531,-2.8531,-2.8531,0,-2.8104,-2.8163,-2.8164,-2.8208,-2.823,-2.8216,-2.8266,-2.8286,-2.8326,-2.8342,-2.8323,-2.8404,-2.8423,-2.8493,-2.8514,-2.853,-2.8544,-2.852,-2.8613,-2.8622,-2.863,-2.866,-2.8671,-2.8534,-2.8533,-2.8533,-2.8533,0,-2.8203,-2.8244,-2.8279,-2.8319,-2.8345,-2.8392,-2.84,-2.8427,-2.8424,-2.8434,-2.8492,-2.8514,-2.8554,-2.8571,-2.8568,-2.8641,-2.863,-2.8613,-2.8579,-2.8645,-2.8672,-2.8684,-2.8537,-2.8536,-2.8536,-2.8535,0,0,-2.8296,-2.8337,-2.835,-2.8368,-2.8401,-2.8433,-2.848,-2.852,-2.8543,-2.8572,-2.8612,-2.8668,-2.8652,-2.8674,-2.8674,-2.8708,-2.8775,-2.8686,-2.8687,-2.8702,-2.8857,-2.887,-2.8883,-2.8768,-2.877,-2.8772,-2.8855,0,-2.8373,-2.8455,-2.8458,-2.8533,-2.8571,-2.856,-2.8601,-2.8626,-2.8637,-2.8672,-2.8684,-2.8724,-2.87,-2.8713,-2.8746,-2.876,-2.8806,-2.8754,-2.8805,-2.8807,-2.8797,-2.8897,-2.8911,-2.8988,-2.8866,-2.8868,-2.8869,0,-2.8473,-2.8506,-2.8585,-2.8614,-2.863,-2.8667,-2.8704,-2.8738,-2.8767,-2.8772,-2.8798,-2.8794,-2.8843,-2.8809,-2.8877,-2.8841,-2.8863,-2.8873,-2.8876,-2.888,-2.8841,-2.8904,-2.9012,-2.9024,-2.8886,-2.8885,-2.8883,0,-2.8534,-2.8597,-2.8653,-2.8669,-2.8704,-2.8731,-2.8746,-2.8773,-2.8798,-2.8831,-2.8847,-2.8885,-2.8906,-2.8936,-2.8943,-2.8917,-2.9012,-2.8977,-2.9018,-2.9018,-2.9037,-2.9036,-2.915,-2.9052,-2.9052,-2.9052,-2.9051,0,-2.8619,-2.8668,-2.8681,-2.8715,-2.877,-2.8774,-2.8828,-2.8842,-2.8867,-2.8904,-2.8897,-2.8932,-2.8939,-2.8976,-2.8982,-2.9038,-2.9047,-2.9054,-2.9055,-2.9054,-2.9053,-2.9068,-2.9062,-2.9055,-2.9054,-2.9053,-2.9053,0,-2.8696,-2.8706,-2.8766,-2.8795,-2.8804,-2.8843,-2.8868,-2.8901,-2.8912,-2.8959,-2.8971,-2.8987,-2.9031,-2.9041,-2.9093,-2.9097,-2.9163,-2.9159,-2.9153,-2.9153,-2.9193,-2.9189,-2.932,-2.9338,-2.9228,-2.9229,-2.923,0,-2.8749,-2.8787,-2.882,-2.8844,-2.8862,-2.8901,-2.8926,-2.8932,-2.8958,-2.8995,-2.9024,-2.9067,-2.9102,-2.9172,-2.9189,-2.9229,-2.9226,-2.9269,-2.9232,-2.9231,-2.9227,-2.9225,-2.9229,-2.9276,-2.9277,-2.9278,-2.9279,0,-2.8843,-2.8847,-2.8883,-2.8922,-2.8952,-2.8982,-2.9012,-2.9032,-2.9042,-2.9073,-2.9117,-2.9144,-2.9198,-2.9241,-2.9281,-2.9298,-2.9291,-2.9291,-2.9303,-2.9302,-2.9298,-2.9301,-2.9172,-2.9288,-2.9287,-2.9286,-2.9286,-2.9285,-2.891,-2.8943,-2.8972,-2.9013,-2.9036,-2.9064,-2.9097,-2.9112,-2.9149,-2.9193,-2.9194,-2.9243,-2.9273,-2.9327,-2.9347,-2.9386,-2.9372,-2.9389,-2.9393,-2.9397,-2.9401,-2.9292,-2.9393,-2.9393,-2.9393,-2.9393,-2.9392,0,-2.9004,-2.9023,-2.906,-2.9102,-2.9134,-2.9125,-2.9157,-2.9185,-2.9228,-2.9256,-2.9291,-2.9343,-2.9385,-2.9406,-2.9449,-2.9476,-2.9474,-2.9487,-2.9485,-2.9489,-2.941,-2.9396,-2.9488,-2.9488,-2.9488,-2.9488,-2.9488,-2.9488,-2.9057,-2.9113,-2.912,-2.9188,-2.9206,-2.9254,-2.9273,-2.9299,-2.9322,-2.9381,-2.9416,-2.9429,-2.9455,-2.95,-2.9538,-2.9544,-2.9559,-2.9574,-2.9578,-2.9504,-2.9494,-2.9485,-2.9472,-2.9578,-2.9578,-2.9654,-2.9654,-2.9655]},{"header":{"parameterUnit":"m.s-1","parameterCategory":1,"la1":30.2991,"la2":30.254,"lo1":-89.0895,"lo2":-89.0444,"dy":0.0017,"dx":0.0017,"nx":28,"ny":28,"refTime":"2024-06-15T03:00:00:Z","depth":0,"parameterNumber":3,"parameterNumberName":"V-component_of_WINDS"},"data":[0,0,0,0,0,0,0,0,0,0,0,0,0,0,0,0,0,0,0,0,0,0,0,0,0,0,0,0,0,0,0,0,0,0,0,0,0,0,0,0,0,0,0,0,0,0,0,0,0,0,0,0,0,0,0,0,0,0,3.4437,3.4437,0,3.4475,3.4475,3.4476,3.4501,3.4501,3.4501,3.4501,3.4536,3.4537,3.4538,0,0,0,0,0,0,0,0,0,0,0,0,0,3.4383,3.4384,3.4437,3.4437,3.4438,3.4475,3.4475,3.4476,3.4501,3.4501,3.4501,3.4501,3.4536,3.4537,3.4538,0,0,0,0,0,0,0,0,0,0,0,0,0,3.4412,3.4384,3.4436,3.4455,3.4457,3.4475,3.4475,3.4476,3.45,3.4501,3.4501,3.4501,3.4536,3.4537,3.4538,3.454,0,0,3.4542,3.4542,0,0,0,0,0,0,0,0,3.441,3.4414,3.4451,3.4453,3.4456,3.4483,3.4469,3.4497,3.45,3.4484,3.4501,3.4501,3.4518,3.4521,3.4527,3.4542,3.4543,3.4542,3.4543,3.4543,3.4543,0,0,0,0,0,0,0,3.4408,3.4412,3.4452,3.4452,3.4454,3.446,3.4464,3.4475,3.4499,3.4485,3.4487,3.4491,3.4519,3.4526,3.4528,3.4544,3.4542,3.4543,3.4544,3.4544,3.4563,3.4562,0,0,0,0,0,0,3.4404,3.441,3.445,3.4453,3.4433,3.4461,3.4466,3.4474,3.4499,3.4503,3.4491,3.4492,3.4524,3.4527,3.453,3.4534,3.4543,3.4544,3.4545,3.4563,3.4562,3.4562,0,0,0,0,0,0,3.4402,3.4407,3.4449,3.4432,3.4438,3.4461,3.4471,3.4475,3.4481,3.4504,3.4508,3.4494,3.4524,3.4528,3.4538,3.4536,3.4545,3.4546,3.4563,3.4563,3.4562,3.4543,0,0,0,0,0,0,3.4401,3.4406,3.4408,3.4432,3.4439,3.4457,3.447,3.4475,3.4484,3.4486,3.4507,3.4511,3.4525,3.4536,3.4539,3.4537,3.4547,3.4563,3.4563,3.4562,3.4544,3.4542,3.454,0,0,0,0,0,3.4399,3.44,3.4408,3.4413,3.4441,3.4457,3.446,3.4478,3.4484,3.4485,3.4499,3.451,3.4536,3.4537,3.454,3.4539,3.4563,3.4563,3.4562,3.4544,3.4542,3.454,0,0,0,0,0,0,3.4373,3.4403,3.4412,3.4422,3.4437,3.4461,3.4463,3.4475,3.4487,3.4488,3.4508,3.4513,3.4521,3.4531,3.4532,3.4543,3.4551,3.4551,3.4536,3.4534,3.4532,3.4529,3.4548,0,0,0,0,0,3.4369,3.438,3.4405,3.4411,3.4418,3.4439,3.4447,3.4459,3.4475,3.4481,3.4496,3.451,3.4521,3.4528,3.454,3.4545,3.455,3.4546,3.4545,3.4543,3.4543,3.4547,3.4546,3.4561,3.4561,3.4561,0,0,3.4359,3.4377,3.4383,3.4406,3.4419,3.443,3.4444,3.4454,3.4462,3.4482,3.4493,3.4504,3.4521,3.4529,3.4533,3.4538,3.454,3.4543,3.4541,3.4542,3.4546,3.4545,3.4544,3.456,3.456,3.4561,0,0,3.4347,3.4362,3.4369,3.4382,3.4403,3.4417,3.4419,3.4442,3.4451,3.4462,3.4477,3.4486,3.4505,3.4517,3.4525,3.452,3.453,3.4523,3.4513,3.4517,3.4516,3.4515,3.4513,3.4512,3.4523,3.4523,3.4523,0,3.4333,3.435,3.437,3.438,3.439,3.4411,3.4417,3.4429,3.4451,3.4457,3.4462,3.4487,3.45,3.4511,3.451,3.4516,3.4518,3.452,3.4515,3.4514,3.4514,3.4512,3.4511,3.4522,3.4522,3.4522,3.4522,0,3.4331,3.4343,3.4346,3.4369,3.4379,3.4387,3.4408,3.4416,3.4427,3.4441,3.4452,3.4469,3.4484,3.4488,3.4499,3.4501,3.4503,3.4511,3.452,3.4511,3.451,3.4509,3.452,3.4521,3.4521,3.4521,0,0,3.4303,3.4339,3.4339,3.435,3.4375,3.4384,3.4393,3.441,3.4416,3.4431,3.4439,3.4455,3.4464,3.4473,3.4485,3.4489,3.4484,3.4497,3.4497,3.4494,3.4487,3.4481,3.448,3.4491,3.4491,3.4491,3.4486,0,3.4295,3.4313,3.4332,3.4344,3.4355,3.4375,3.4383,3.4399,3.4412,3.4423,3.4437,3.4448,3.4458,3.4464,3.4469,3.4483,3.4483,3.4484,3.4498,3.4498,3.4493,3.4479,3.4472,3.4466,3.4485,3.4485,3.4485,0,3.4287,3.4303,3.4316,3.4341,3.4346,3.4353,3.4371,3.4381,3.4399,3.4409,3.442,3.4434,3.4444,3.4452,3.4465,3.4466,3.4473,3.4481,3.4481,3.4482,3.4491,3.448,3.4465,3.4464,3.4485,3.4485,3.4485,0,3.4265,3.429,3.4301,3.431,3.4339,3.4344,3.4356,3.4374,3.4384,3.4399,3.4405,3.442,3.4428,3.4439,3.4457,3.4461,3.4469,3.4478,3.4476,3.4476,3.4476,3.4476,3.4461,3.4481,3.4481,3.4481,3.4481,0,3.4254,3.4261,3.4292,3.4299,3.4308,3.433,3.4337,3.4351,3.4367,3.4377,3.4395,3.4403,3.4425,3.4436,3.445,3.4459,3.4462,3.447,3.4473,3.4468,3.4467,3.4472,3.4473,3.4481,3.4481,3.4481,3.4481,0,3.423,3.4252,3.4265,3.4293,3.43,3.4305,3.4328,3.4335,3.435,3.4361,3.4365,3.4388,3.4402,3.4421,3.4439,3.4449,3.4456,3.4462,3.445,3.4452,3.4449,3.4449,3.4438,3.4437,3.4457,3.4457,3.4457,0,3.4221,3.4228,3.4256,3.4265,3.4277,3.429,3.43,3.4322,3.4332,3.4354,3.4358,3.4373,3.4387,3.4407,3.4425,3.4439,3.4445,3.444,3.4448,3.4442,3.4445,3.4445,3.4445,3.4438,3.4438,3.4438,3.4438,0,3.4203,3.4214,3.4229,3.4247,3.4259,3.4275,3.4291,3.4296,3.4321,3.4331,3.4346,3.4357,3.4377,3.4392,3.4409,3.4421,3.4433,3.4435,3.4436,3.443,3.4423,3.4427,3.4445,3.4435,3.4436,3.4436,3.4436,3.4436,3.4187,3.4194,3.4215,3.4231,3.4246,3.4261,3.427,3.4286,3.43,3.4319,3.4331,3.4346,3.4364,3.4389,3.44,3.4411,3.4416,3.4416,3.4417,3.4416,3.4415,3.4422,3.4414,3.4414,3.4414,3.4415,3.4415,0,3.417,3.4185,3.42,3.4223,3.4235,3.4248,3.4266,3.4276,3.4289,3.4306,3.4319,3.4337,3.4352,3.4371,3.4387,3.4392,3.4398,3.4396,3.4395,3.4398,3.4409,3.4407,3.4391,3.4391,3.4391,3.4391,3.4391,3.4391,3.4162,3.4175,3.4188,3.4208,3.4223,3.4239,3.4249,3.4262,3.4276,3.4296,3.4309,3.4322,3.434,3.4358,3.4372,3.4377,3.4382,3.4378,3.4384,3.4395,3.4397,3.4399,3.4397,3.4378,3.4378,3.4372,3.4372,3.4372]}]]